GW6106 Weather Reports


time (UTC)temp
C
wind
direction
speed
KPH
gust
KPH
rain 1hr
cm
rain 24hr
cm
rain mn
cm
humidity
%
barometer
mb
20260510061349 10 172 3.2 4.8 0.00 0.00 0.00 91 1007.0
20260510060849 10 271 4.8 6.4 0.00 0.00 0.00 90 1007.0
20260510060349 10 253 3.2 8.0 0.00 0.00 0.00 90 1007.0
20260510055850 10 209 1.6 3.2 0.00 0.00 0.00 90 1007.0
20260510055349 10 238 3.2 3.2 0.00 0.00 0.00 90 1007.0
20260510054849 10 224 3.2 6.4 0.00 0.00 0.00 90 1007.0
20260510054349 10 215 3.2 3.2 0.00 0.00 0.00 90 1007.0
20260510053849 10 215 4.8 6.4 0.00 0.00 0.00 90 1007.0
20260510053349 10 207 4.8 8.0 0.00 0.00 0.00 90 1007.0
20260510052849 10 178 3.2 8.0 0.00 0.00 0.00 90 1007.0
20260510052349 10 192 3.2 8.0 0.00 0.00 0.00 90 1007.0
20260510051849 10 188 3.2 8.0 0.00 0.00 0.00 91 1007.0
20260510051349 10 216 1.6 3.2 0.00 0.00 0.00 91 1007.0
20260510050849 10 222 1.6 3.2 0.00 0.00 0.00 90 1007.0
20260510050350 10 226 1.6 3.2 0.00 0.00 0.00 90 1007.0
20260510045849 10 234 3.2 6.4 0.00 0.00 0.00 90 1007.0
20260510045349 10 221 1.6 4.8 0.00 0.00 0.00 90 1007.0
20260510044849 10 222 1.6 3.2 0.00 0.00 0.00 90 1007.0
20260510044349 10 219 1.6 4.8 0.00 0.00 0.00 90 1007.0
20260510043849 10 237 3.2 4.8 0.00 0.00 0.00 90 1007.0
20260510043349 10 238 3.2 6.4 0.00 0.00 0.00 90 1007.0
20260510042849 10 255 4.8 8.0 0.00 0.00 0.00 90 1007.0
20260510042349 10 252 4.8 6.4 0.00 0.00 0.00 90 1007.0
20260510041849 10 213 3.2 9.7 0.00 0.00 0.00 90 1007.0
20260510041349 10 190 1.6 3.2 0.00 0.00 0.00 91 1007.0
20260510040849 10 185 3.2 3.2 0.00 0.00 0.00 91 1007.0
20260510040349 10 191 3.2 6.4 0.00 0.00 0.00 91 1007.0
20260510035849 10 191 4.8 6.4 0.00 0.00 0.43 92 1007.0
20260510035349 10 202 1.6 4.8 0.00 0.00 0.43 92 1007.0
20260510034851 10 198 3.2 8.0 0.00 0.00 0.43 92 1007.0
20260510034349 10 203 3.2 4.8 0.00 0.00 0.43 92 1007.0
20260510033849 10 178 4.8 8.0 0.00 0.00 0.43 92 1007.0
20260510033349 10 179 4.8 9.7 0.00 0.00 0.43 93 1007.0
20260510032849 10 193 6.4 8.0 0.00 0.00 0.43 93 1007.0
20260510032349 10 179 1.6 6.4 0.00 0.00 0.30 93 1007.0
20260510031849 10 191 4.8 6.4 0.00 0.00 0.30 93 1007.0
20260510031349 10 178 4.8 8.0 0.00 0.00 0.30 93 1007.0
20260510030849 10 169 1.6 4.8 0.00 0.00 0.30 93 1007.0
20260510030349 10 191 3.2 4.8 0.00 0.00 0.30 93 1007.0
20260510025849 10 160 3.2 6.4 0.00 0.00 0.30 93 1007.0
20260510025349 10 191 3.2 4.8 0.00 0.00 0.30 92 1007.0
20260510024849 10 188 1.6 4.8 0.00 0.00 0.33 92 1007.0
20260510024350 10 148 3.2 8.0 0.20 0.00 0.33 92 1007.0
20260510023850 10 164 1.6 4.8 0.48 0.00 0.28 91 1007.0
20260510023352 10 233 3.2 4.8 0.43 0.00 0.28 91 1007.0
20260510022850 10 240 3.2 4.8 0.23 0.00 0.25 91 1007.0
20260510022349 10 250 4.8 8.0 0.33 0.00 0.23 90 1007.0
20260510021850 10 253 11.3 14.5 0.38 0.00 0.28 89 1007.0
20260510021349 11 263 14.5 20.9 0.36 0.00 0.23 88 1007.0
20260510020849 12 268 19.3 24.1 2.03 0.00 0.20 85 1007.0
20260510020350 13 249 14.5 19.3 0.05 0.00 0.00 75 1006.0
20260510015850 13 193 6.4 11.3 0.00 0.00 0.00 74 1005.0
20260510015349 13 171 6.4 11.3 0.00 0.00 0.00 74 1005.0
20260510014849 13 159 9.7 14.5 0.00 0.00 0.00 74 1005.0
20260510014349 13 203 4.8 8.0 0.00 0.00 0.00 74 1005.0
20260510013851 13 162 8.0 17.7 0.00 0.00 0.00 74 1005.0
20260510013349 13 175 4.8 8.0 0.00 0.00 0.00 74 1005.0
20260510012849 13 167 9.7 17.7 0.00 0.00 0.00 73 1005.0
20260510012349 13 148 6.4 9.7 0.00 0.00 0.00 74 1004.0
20260510011849 13 149 9.7 14.5 0.00 0.00 0.00 74 1004.0
20260510011349 13 150 8.0 11.3 0.00 0.00 0.00 73 1004.0
20260510010849 13 151 9.7 19.3 0.00 0.00 0.00 73 1005.0
20260510010349 13 151 8.0 14.5 0.00 0.00 0.00 74 1005.0
20260510005850 13 164 4.8 8.0 0.00 0.00 0.00 74 1005.0
20260510005349 13 160 6.4 8.0 0.00 0.00 0.00 73 1005.0
20260510004849 13 146 6.4 9.7 0.00 0.00 0.00 74 1004.0
20260510004349 13 155 8.0 14.5 0.00 0.00 0.00 74 1004.0
20260510003849 13 155 6.4 6.4 0.00 0.00 0.00 73 1005.0
20260510003349 13 150 6.4 9.7 0.00 0.00 0.00 73 1005.0
20260510002849 13 152 6.4 8.0 0.00 0.00 0.00 73 1004.0
20260510002349 14 153 4.8 6.4 0.00 0.00 0.00 73 1005.0
20260510001849 14 162 4.8 6.4 0.00 0.00 0.00 72 1004.0
20260510001349 14 146 6.4 12.9 0.00 0.00 0.00 72 1004.0
20260510000849 14 150 6.4 14.5 0.00 0.00 0.00 72 1005.0
20260510000349 14 154 4.8 8.0 0.00 0.00 0.00 72 1005.0
20260509235849 14 150 4.8 6.4 0.00 0.00 0.00 72 1005.0
20260509235349 14 159 6.4 9.7 0.00 0.00 0.00 71 1004.0
20260509234849 15 157 6.4 9.7 0.00 0.00 0.00 71 1005.0
20260509234349 15 150 6.4 14.5 0.00 0.00 0.00 70 1005.0
20260509233848 15 171 6.4 9.7 0.00 0.00 0.00 70 1005.0
20260509233350 15 158 8.0 12.9 0.00 0.00 0.00 69 1005.0
20260509232850 15 153 8.0 12.9 0.00 0.00 0.00 69 1005.0
20260509232349 15 155 8.0 11.3 0.00 0.00 0.00 68 1005.0
20260509231849 15 161 6.4 9.7 0.00 0.00 0.00 68 1005.0
20260509231350 15 169 6.4 8.0 0.00 0.00 0.00 68 1005.0
20260509230849 15 161 8.0 11.3 0.00 0.00 0.00 67 1005.0
20260509230350 16 157 6.4 9.7 0.00 0.00 0.00 66 1005.0
20260509225849 16 164 8.0 11.3 0.00 0.00 0.00 66 1005.0
20260509225349 16 166 6.4 9.7 0.00 0.00 0.00 66 1005.0
20260509224849 16 164 4.8 8.0 0.00 0.00 0.00 65 1005.0
20260509224349 16 187 6.4 9.7 0.00 0.00 0.00 65 1005.0
20260509223849 16 146 8.0 9.7 0.00 0.00 0.00 65 1005.0
20260509223349 16 156 8.0 12.9 0.00 0.00 0.00 65 1005.0
20260509222849 16 159 11.3 16.1 0.00 0.00 0.00 64 1005.0
20260509222349 16 146 8.0 9.7 0.00 0.00 0.00 63 1005.0
20260509221849 16 165 8.0 12.9 0.00 0.00 0.00 63 1005.0
20260509221349 16 182 6.4 9.7 0.00 0.00 0.00 63 1005.0
20260509220849 16 185 4.8 8.0 0.00 0.00 0.00 63 1005.0
20260509220349 17 163 9.7 14.5 0.00 0.00 0.00 62 1005.0
20260509215849 17 174 6.4 14.5 0.00 0.00 0.00 63 1005.0
20260509215349 17 152 6.4 8.0 0.00 0.00 0.00 62 1005.0
20260509214849 17 157 6.4 9.7 0.00 0.00 0.00 60 1005.0
20260509214349 17 171 6.4 9.7 0.00 0.00 0.00 60 1005.0
20260509213849 17 185 8.0 12.9 0.00 0.00 0.00 60 1005.0
20260509213349 17 199 4.8 11.3 0.00 0.00 0.00 60 1005.0
20260509212852 17 165 8.0 11.3 0.00 0.00 0.00 61 1005.0
20260509212349 17 191 6.4 11.3 0.00 0.00 0.00 58 1005.0
20260509211849 17 219 6.4 9.7 0.00 0.00 0.00 61 1005.0
20260509211350 17 151 9.7 12.9 0.00 0.00 0.00 61 1005.0
20260509210849 17 229 9.7 17.7 0.00 0.00 0.00 62 1005.0
20260509210349 17 198 4.8 6.4 0.00 0.00 0.00 62 1005.0
20260509205849 16 160 3.2 6.4 0.00 0.00 0.00 63 1005.0
20260509205349 17 159 8.0 11.3 0.00 0.00 0.00 62 1005.0
20260509204849 17 149 9.7 12.9 0.00 0.00 0.00 61 1005.0
20260509204349 16 175 6.4 9.7 0.00 0.00 0.00 62 1005.0
20260509203849 16 223 8.0 14.5 0.00 0.00 0.00 62 1005.0
20260509203349 16 155 9.7 12.9 0.00 0.00 0.00 62 1005.0
20260509202849 16 152 6.4 9.7 0.00 0.00 0.00 64 1005.0
20260509202349 16 147 9.7 12.9 0.00 0.00 0.00 65 1005.0
20260509201849 16 143 8.0 11.3 0.00 0.00 0.00 64 1005.0
20260509201349 16 163 8.0 12.9 0.00 0.00 0.00 64 1005.0
20260509200850 16 167 6.4 11.3 0.00 0.00 0.00 63 1005.0
20260509200349 16 176 8.0 11.3 0.00 0.00 0.00 63 1006.0
20260509195849 16 163 9.7 12.9 0.00 0.00 0.00 63 1006.0
20260509195350 16 167 9.7 12.9 0.00 0.00 0.00 63 1006.0
20260509194849 16 163 6.4 9.7 0.00 0.00 0.00 64 1006.0
20260509194349 16 162 8.0 12.9 0.00 0.00 0.00 63 1006.0
20260509193849 16 206 6.4 11.3 0.00 0.00 0.00 63 1006.0
20260509193349 16 157 6.4 9.7 0.00 0.00 0.00 63 1006.0
20260509192849 16 148 6.4 9.7 0.00 0.00 0.00 63 1006.0
20260509192349 16 176 6.4 8.0 0.00 0.00 0.00 62 1006.0
20260509191849 15 194 4.8 9.7 0.00 0.00 0.00 64 1006.0
20260509191349 15 184 3.2 6.4 0.00 0.00 0.00 66 1006.0
20260509190849 15 157 9.7 11.3 0.00 0.00 0.00 64 1006.0
20260509190349 16 166 6.4 11.3 0.00 0.00 0.00 64 1006.0
20260509185849 16 171 8.0 12.9 0.00 0.00 0.00 62 1006.0
20260509185352 15 163 9.7 14.5 0.00 0.00 0.00 64 1006.0
20260509184850 15 177 8.0 11.3 0.00 0.00 0.00 65 1007.0
20260509184349 16 177 9.7 14.5 0.00 0.00 0.00 63 1007.0
20260509183849 15 202 4.8 8.0 0.00 0.00 0.00 65 1007.0
20260509183350 15 167 8.0 11.3 0.00 0.00 0.00 64 1007.0
20260509182850 16 145 8.0 11.3 0.00 0.00 0.00 63 1007.0
20260509182349 16 159 9.7 12.9 0.00 0.00 0.00 62 1007.0
20260509181849 16 159 6.4 12.9 0.00 0.00 0.00 62 1006.0
20260509181349 16 173 6.4 9.7 0.00 0.00 0.00 62 1006.0
20260509180849 16 211 8.0 14.5 0.00 0.00 0.00 61 1006.0
20260509180350 16 184 8.0 9.7 0.00 0.00 0.00 60 1006.0
20260509175850 16 179 8.0 9.7 0.00 0.00 0.00 60 1006.0
20260509175349 16 186 9.7 14.5 0.00 0.00 0.00 60 1006.0
20260509174849 16 184 6.4 12.9 0.00 0.00 0.00 58 1006.0
20260509174349 16 209 4.8 6.4 0.00 0.00 0.00 58 1006.0
20260509173849 16 178 6.4 9.7 0.00 0.00 0.00 61 1006.0
20260509173350 16 198 6.4 12.9 0.00 0.00 0.00 58 1006.0
20260509172850 16 173 8.0 16.1 0.00 0.00 0.00 58 1007.0
20260509172350 16 150 11.3 14.5 0.00 0.00 0.00 58 1007.0
20260509171849 15 157 6.4 9.7 0.00 0.00 0.00 60 1007.0
20260509171349 15 155 9.7 14.5 0.00 0.00 0.00 60 1007.0
20260509170849 15 168 6.4 8.0 0.00 0.00 0.00 59 1007.0
20260509170349 16 179 8.0 11.3 0.00 0.00 0.00 58 1007.0
20260509165849 16 195 4.8 6.4 0.00 0.00 0.00 58 1007.0
20260509165351 15 157 8.0 11.3 0.00 0.00 0.00 57 1007.0
20260509164849 16 153 6.4 9.7 0.00 0.00 0.00 56 1007.0
20260509164349 16 186 4.8 8.0 0.00 0.00 0.00 57 1007.0
20260509163849 15 134 3.2 4.8 0.00 0.00 0.00 60 1007.0
20260509163349 16 159 6.4 8.0 0.00 0.00 0.00 58 1007.0
20260509162849 16 194 8.0 9.7 0.00 0.00 0.00 58 1007.0
20260509162350 16 134 6.4 11.3 0.00 0.00 0.00 58 1007.0
20260509161849 15 153 6.4 9.7 0.00 0.00 0.00 60 1007.0
20260509161349 15 141 8.0 11.3 0.00 0.00 0.00 58 1007.0
20260509160849 15 157 3.2 6.4 0.00 0.00 0.00 60 1008.0
20260509160349 15 185 4.8 8.0 0.00 0.00 0.00 60 1008.0
20260509155849 15 169 8.0 12.9 0.00 0.00 0.00 61 1008.0
20260509155349 15 233 9.7 12.9 0.00 0.00 0.00 64 1008.0
20260509154849 14 195 4.8 8.0 0.00 0.00 0.00 63 1008.0
20260509154350 14 204 8.0 14.5 0.00 0.00 0.00 65 1008.0
20260509153849 14 239 9.7 12.9 0.00 0.00 0.00 64 1008.0
20260509153352 14 224 9.7 14.5 0.00 0.00 0.00 65 1008.0
20260509152849 14 235 8.0 12.9 0.00 0.00 0.00 64 1008.0
20260509152349 14 196 4.8 11.3 0.00 0.00 0.00 63 1008.0
20260509151849 14 163 6.4 11.3 0.00 0.00 0.00 63 1008.0
20260509151349 15 212 4.8 9.7 0.00 0.00 0.00 61 1008.0
20260509150849 14 230 6.4 11.3 0.00 0.00 0.00 63 1008.0
20260509150350 14 231 9.7 12.9 0.00 0.00 0.00 62 1008.0
20260509145849 14 150 6.4 6.4 0.00 0.00 0.00 61 1008.0
20260509145349 15 194 3.2 4.8 0.00 0.00 0.00 62 1008.0
20260509144849 15 145 6.4 8.0 0.00 0.00 0.00 59 1008.0
20260509144349 14 163 6.4 9.7 0.00 0.00 0.00 61 1008.0
20260509143849 14 173 6.4 12.9 0.00 0.00 0.00 60 1008.0
20260509143350 14 173 4.8 6.4 0.00 0.00 0.00 62 1008.0
20260509142850 14 159 8.0 12.9 0.00 0.00 0.00 60 1008.0
20260509142350 13 172 6.4 9.7 0.00 0.00 0.00 59 1008.0
20260509141849 13 163 6.4 11.3 0.00 0.00 0.00 61 1008.0
20260509141349 13 146 8.0 11.3 0.00 0.00 0.00 59 1008.0
20260509140849 13 195 6.4 8.0 0.00 0.00 0.00 59 1009.0
20260509140350 13 151 4.8 11.3 0.00 0.00 0.00 60 1009.0
20260509135849 13 154 6.4 8.0 0.00 0.00 0.00 62 1009.0
20260509135350 13 154 8.0 11.3 0.00 0.00 0.00 62 1009.0
20260509134850 13 178 6.4 8.0 0.00 0.00 0.00 62 1009.0
20260509134350 13 184 6.4 8.0 0.00 0.00 0.00 62 1009.0
20260509133849 13 162 9.7 12.9 0.00 0.00 0.00 62 1009.0
20260509133350 13 164 6.4 9.7 0.00 0.00 0.00 63 1009.0
20260509132849 13 153 6.4 8.0 0.00 0.00 0.00 63 1009.0
20260509132350 13 152 6.4 9.7 0.00 0.00 0.00 63 1009.0
20260509131849 13 147 8.0 9.7 0.00 0.00 0.00 61 1009.0
20260509131350 12 174 6.4 9.7 0.00 0.00 0.00 62 1009.0
20260509130849 12 140 9.7 14.5 0.00 0.00 0.00 62 1009.0
20260509130349 12 159 9.7 12.9 0.00 0.00 0.00 61 1009.0
20260509125850 12 155 6.4 8.0 0.00 0.00 0.00 61 1009.0
20260509125349 12 152 6.4 9.7 0.00 0.00 0.00 60 1009.0
20260509124849 12 158 4.8 6.4 0.00 0.00 0.00 60 1009.0
20260509124350 12 142 6.4 9.7 0.00 0.00 0.00 59 1009.0
20260509123849 12 162 6.4 8.0 0.00 0.00 0.00 58 1009.0
20260509123349 12 137 8.0 14.5 0.00 0.00 0.00 56 1009.0
20260509122850 12 147 6.4 8.0 0.00 0.00 0.00 56 1009.0
20260509122349 12 146 6.4 8.0 0.00 0.00 0.00 54 1009.0
20260509121849 11 149 8.0 9.7 0.00 0.00 0.00 53 1009.0
20260509121349 11 152 8.0 11.3 0.00 0.00 0.00 51 1009.0
20260509120849 11 139 8.0 11.3 0.00 0.00 0.00 50 1009.0
20260509120349 11 141 9.7 14.5 0.00 0.00 0.00 49 1009.0
20260509115854 11 131 9.7 14.5 0.00 0.00 0.00 50 1009.0
20260509115349 10 131 9.7 12.9 0.00 0.00 0.00 50 1009.0
20260509114849 10 131 6.4 11.3 0.00 0.00 0.00 51 1009.0
20260509114349 10 137 6.4 8.0 0.00 0.00 0.00 50 1009.0
20260509113849 10 142 4.8 6.4 0.00 0.00 0.00 51 1009.0
20260509113349 10 138 4.8 8.0 0.00 0.00 0.00 51 1009.0
20260509112851 10 144 4.8 8.0 0.00 0.00 0.00 50 1009.0
20260509112349 10 137 6.4 9.7 0.00 0.00 0.00 51 1009.0
20260509111849 9 151 4.8 6.4 0.00 0.00 0.00 51 1009.0
20260509111350 9 138 6.4 8.0 0.00 0.00 0.00 52 1009.0
20260509110850 8 144 6.4 8.0 0.00 0.00 0.00 53 1009.0
20260509110349 8 142 6.4 8.0 0.00 0.00 0.00 54 1009.0
20260509105849 8 128 6.4 9.7 0.00 0.00 0.00 54 1009.0
20260509105350 8 136 6.4 8.0 0.00 0.00 0.00 55 1009.0
20260509104849 7 132 6.4 11.3 0.00 0.00 0.00 56 1009.0
20260509104350 7 133 6.4 9.7 0.00 0.00 0.00 56 1009.0
20260509103849 7 121 6.4 11.3 0.00 0.00 0.00 58 1009.0
20260509103349 7 111 4.8 8.0 0.00 0.00 0.00 58 1009.0
20260509102849 7 99 6.4 9.7 0.00 0.00 0.00 58 1009.0
20260509102350 6 103 6.4 9.7 0.00 0.00 0.00 59 1009.0
20260509101849 6 104 4.8 8.0 0.00 0.00 0.00 59 1009.0
20260509101349 6 114 6.4 6.4 0.00 0.00 0.00 60 1009.0
20260509100850 6 118 6.4 8.0 0.00 0.00 0.00 59 1009.0
20260509100349 6 120 4.8 8.0 0.00 0.00 0.00 60 1009.0
20260509095849 6 123 6.4 8.0 0.00 0.00 0.00 60 1009.0
20260509095349 6 131 4.8 6.4 0.00 0.00 0.00 61 1009.0
20260509094850 6 128 3.2 6.4 0.00 0.00 0.00 61 1009.0
20260509094349 6 128 4.8 6.4 0.00 0.00 0.00 61 1009.0
20260509093850 6 130 4.8 6.4 0.00 0.00 0.00 60 1009.0
20260509093349 6 128 4.8 6.4 0.00 0.00 0.00 60 1009.0
20260509092849 6 120 6.4 6.4 0.00 0.00 0.00 60 1009.0
20260509092349 6 116 6.4 6.4 0.00 0.00 0.00 60 1009.0
20260509091849 6 109 4.8 6.4 0.00 0.00 0.00 60 1009.0
20260509091349 5 118 4.8 6.4 0.00 0.00 0.00 61 1009.0
20260509090850 5 125 3.2 4.8 0.00 0.00 0.00 61 1009.0
20260509090349 5 127 1.6 3.2 0.00 0.00 0.00 61 1009.0
20260509085849 5 135 3.2 6.4 0.00 0.00 0.00 62 1009.0
20260509085349 5 127 4.8 6.4 0.00 0.00 0.00 61 1009.0
20260509084849 6 128 4.8 6.4 0.00 0.00 0.00 61 1009.0
20260509084350 6 133 3.2 4.8 0.00 0.00 0.00 60 1009.0
20260509083849 6 148 3.2 6.4 0.00 0.00 0.00 60 1010.0
20260509083349 5 134 3.2 4.8 0.00 0.00 0.00 61 1010.0
20260509082849 5 133 3.2 6.4 0.00 0.00 0.00 62 1010.0
20260509082349 6 133 4.8 6.4 0.00 0.00 0.00 61 1010.0
20260509081849 6 130 4.8 6.4 0.00 0.00 0.00 61 1010.0
20260509081349 6 121 4.8 6.4 0.00 0.00 0.00 61 1010.0
20260509080849 6 116 4.8 6.4 0.00 0.00 0.00 60 1010.0
20260509080350 6 107 4.8 6.4 0.00 0.00 0.00 60 1010.0
20260509075850 6 117 3.2 3.2 0.00 0.00 0.00 61 1010.0
20260509075349 6 109 3.2 4.8 0.00 0.00 0.00 61 1010.0
20260509074849 6 119 4.8 6.4 0.00 0.00 0.00 61 1010.0
20260509074349 6 108 3.2 6.4 0.00 0.00 0.00 61 1010.0
20260509073849 6 119 1.6 3.2 0.00 0.00 0.00 61 1010.0
20260509073349 6 125 3.2 3.2 0.00 0.00 0.00 61 1010.0
20260509072850 6 124 3.2 4.8 0.00 0.00 0.00 61 1010.0
20260509072350 6 128 3.2 4.8 0.00 0.00 0.00 60 1010.0
20260509071849 6 134 3.2 4.8 0.00 0.00 0.00 60 1010.0
20260509071350 6 123 3.2 4.8 0.00 0.00 0.00 60 1010.0
20260509070849 6 124 3.2 4.8 0.00 0.00 0.00 60 1010.0
20260509070349 6 123 3.2 4.8 0.00 0.00 0.00 60 1010.0
20260509065849 6 124 1.6 3.2 0.00 0.00 0.00 59 1010.0
20260509065349 6 126 3.2 4.8 0.00 0.00 0.00 60 1010.0
20260509064849 6 121 1.6 3.2 0.00 0.00 0.00 60 1010.0
20260509064349 6 131 3.2 6.4 0.00 0.00 0.00 59 1010.0
20260509063850 6 134 3.2 4.8 0.00 0.00 0.00 59 1010.0
20260509063349 6 141 3.2 6.4 0.00 0.00 0.00 58 1010.0
20260509062850 6 144 3.2 6.4 0.00 0.00 0.00 58 1010.0
20260509062350 6 145 3.2 4.8 0.00 0.00 0.00 57 1010.0
20260509061851 6 147 3.2 6.4 0.00 0.00 0.00 57 1010.0